Wind_Speed
18 18 18 17 17 18 18 17 16 15 14 13 11 10 9 8 9 9 9 9 9 7 7 7 8 9 9 11 12 10 8 5 5 5 5 10 11 11 10 10 14 21 32
19 20 20 19 19 19 17 15 15 15 13 13 11 9 7 7 8 8 8 7 9 9 8 8 9 9 11 10 10 10 11 8 9 12 10 10 14 15 15 20 23 29 36
21 21 19 18 17 16 16 15 15 15 13 11 8 5 5 3 3 6 8 7 8 9 9 10 10 10 11 10 10 11 12 11 12 14 10 14 18 24 27 29 31 35 36
19 19 17 15 15 15 15 15 14 13 11 8 5 5 3 1 1 0 3 5 5 6 7 9 10 11 11 11 10 12 16 15 16 19 19 17 19 21 33 34 31 36 40
18 17 15 14 15 15 14 14 12 11 8 8 8 5 4 3 2 3 4 5 6 5 7 7 9 10 11 11 11 14 21 18 19 21 18 20 22 22 27 30 32 36 31
16 15 14 14 14 14 13 12 12 10 8 9 7 5 4 3 2 1 3 3 6 6 7 9 10 8 10 11 12 16 17 23 22 20 20 23 22 23 30 34 37 31 14
14 13 13 12 14 14 12 13 11 8 11 10 7 5 3 3 3 5 3 4 7 8 12 14 13 12 13 14 16 18 18 21 22 25 24 24 29 32 31 29 31 23 20
11 12 12 13 14 12 12 11 10 7 12 9 7 5 3 5 5 4 6 7 9 10 13 14 17 17 15 17 18 19 18 21 23 21 25 28 31 32 31 32 25 28 28
10 11 13 14 14 12 12 11 9 10 11 8 6 4 4 7 7 6 8 10 11 12 13 15 16 19 21 21 23 25 24 22 23 26 27 30 38 35 34 33 28 28 17
10 11 14 13 12 12 11 10 9 9 10 8 6 5 6 7 6 7 8 12 12 14 13 12 14 21 23 26 24 25 28 28 30 30 30 33 34 32 30 21 28 25 19
11 13 13 11 11 9 10 8 8 9 9 8 6 6 7 7 7 7 8 10 11 12 15 16 21 23 22 24 25 27 29 33 33 33 31 32 29 27 25 20 17 18 18
13 13 12 11 10 9 9 9 8 8 10 7 6 6 6 8 9 8 6 10 12 13 16 23 23 23 24 26 24 30 33 31 27 26 26 26 22 22 17 15 13 14 5
14 12 11 11 9 9 9 9 8 7 9 8 7 5 5 8 10 9 10 13 15 17 18 22 21 21 21 21 30 31 26 24 26 25 24 20 18 16 14 12 12 12 8
14 11 11 10 10 9 7 7 6 7 7 8 7 7 6 8 12 14 15 15 18 22 23 22 20 16 17 26 28 18 17 20 22 23 19 17 15 15 14 14 12 13 9
13 12 10 9 9 10 7 6 4 3 5 8 8 8 8 7 12 14 14 16 22 22 26 19 17 15 17 15 12 11 14 16 16 17 18 18 17 17 14 13 12 13 11
13 11 10 10 10 9 9 8 6 6 7 7 8 7 6 8 13 14 16 19 23 26 18 16 16 18 17 15 15 15 13 14 13 15 16 18 18 17 16 14 12 13 13
13 12 10 10 11 10 10 10 10 7 7 9 10 8 7 12 14 13 15 18 26 23 16 16 15 15 15 14 13 14 14 13 14 15 16 17 17 17 17 16 15 14 13
11 14 13 12 12 10 10 9 8 9 10 9 10 11 10 13 14 15 18 21 23 13 14 14 15 15 15 14 14 14 14 15 16 17 17 17 17 17 17 16 16 16 15
10 10 13 11 12 11 9 8 8 7 7 11 11 12 13 14 14 16 20 17 16 14 13 13 14 14 15 15 14 15 15 16 17 17 17 18 18 18 18 17 16 16 15
7 9 10 9 11 13 12 10 9 8 7 9 12 12 17 19 17 20 18 13 14 14 15 15 16 16 16 16 16 16 16 17 18 19 19 19 19 19 19 19 19 19 19
7 7 10 8 9 11 12 12 11 10 9 8 10 14 20 15 15 16 18 16 16 16 15 15 15 16 16 18 18 18 18 18 20 21 21 22 22 22 23 23 22 22 22
4 8 9 8 8 9 10 10 11 10 10 9 9 10 17 15 11 13 15 17 17 16 16 17 17 17 18 18 18 19 20 22 24 25 25 25 25 25 24 24 24 24 25
5 6 7 7 6 5 7 8 9 10 11 10 9 9 15 16 14 14 14 14 15 16 16 17 18 19 20 20 21 22 23 23 23 23 25 26 26 26 26 27 27 27 27
11 11 12 11 6 5 2 2 3 5 6 7 8 8 9 11 12 13 13 13 14 15 17 19 21 22 22 23 24 25 25 25 23 24 27 26 28 29 30 30 30 30 30
11 11 16 17 15 14 13 12 10 6 4 3 2 3 5 6 8 9 10 11 13 14 16 17 19 21 24 27 26 26 28 33 33 30 27 28 30 30 31 31 32 32 33
14 13 18 22 22 21 20 20 21 21 20 18 17 14 11 7 5 5 6 7 8 10 12 13 15 18 20 21 24 29 32 34 37 38 34 31 31 33 33 34 36 35 34
Wind_Direction
122 125 125 125 125 126 128 130 135 144 149 149 154 164 179 187 206 222 233 235 229 219 211 210 216 207 196 190 196 201 197 170 147 135 131 148 151 158 158 167 167 162 170
123 119 116 121 125 127 131 135 138 140 143 151 158 164 179 208 225 237 242 233 238 223 209 204 213 205 199 192 187 185 188 181 159 137 130 128 133 151 145 147 154 154 168
120 119 121 124 128 130 133 134 136 140 144 152 157 174 175 167 206 227 233 236 234 219 210 208 208 197 191 186 176 169 176 171 158 146 121 126 118 137 130 131 133 132 138
125 124 125 126 130 133 135 136 140 144 149 151 153 151 141 138 39 182 193 201 197 202 210 204 195 192 187 170 165 164 162 153 137 133 122 118 118 125 123 119 114 118 124
128 127 126 129 133 137 139 142 142 143 144 139 136 126 93 90 86 104 113 165 181 192 202 188 190 187 178 170 165 158 153 146 144 132 132 128 126 128 125 125 119 121 127
130 131 131 134 140 142 139 145 148 147 142 141 133 109 96 76 100 89 148 169 186 178 163 146 154 158 152 161 160 157 162 156 150 145 141 140 134 132 135 133 130 137 128
138 136 142 144 149 150 145 146 150 150 149 149 131 101 83 31 120 124 148 160 148 145 142 141 133 140 140 145 150 148 153 161 156 153 146 150 143 146 142 138 142 142 139
146 149 151 148 147 152 156 156 153 152 162 152 126 108 77 53 105 121 120 128 129 134 140 140 137 137 138 138 139 141 146 156 157 155 154 149 148 148 145 144 137 123 128
158 155 154 151 150 156 160 159 161 162 163 154 133 105 81 91 108 119 128 130 129 127 136 135 138 146 147 143 137 136 134 135 154 154 150 149 153 150 152 144 132 132 127
166 156 155 155 158 166 165 158 163 161 151 148 125 101 86 105 127 129 133 134 124 126 133 134 148 150 150 148 139 137 128 135 141 140 141 146 155 152 147 144 143 146 142
157 148 154 155 164 160 150 162 166 165 144 142 122 108 100 121 129 132 137 135 127 123 129 132 138 143 148 148 140 136 136 142 140 135 134 141 146 150 151 144 154 156 158
152 148 157 162 164 163 162 148 160 162 149 146 139 123 104 126 140 142 143 140 131 127 128 138 138 141 143 138 136 142 141 136 134 135 137 142 147 155 159 160 156 152 121
155 154 159 162 161 158 157 150 160 170 151 164 167 150 123 131 140 132 134 137 129 126 133 138 137 142 142 142 142 144 137 140 141 140 146 153 161 160 161 159 162 165 98
159 155 164 161 155 150 151 154 166 174 171 173 171 159 146 142 143 139 138 139 137 135 134 134 134 139 134 144 145 141 142 146 150 151 151 151 154 159 162 170 174 184 200
162 160 160 157 159 147 134 137 139 157 173 170 172 162 161 161 166 156 151 145 141 145 141 134 130 129 135 146 157 157 150 154 154 154 154 159 160 164 170 175 181 185 201
161 171 175 162 162 157 147 135 133 132 131 139 155 151 152 157 157 156 160 161 154 151 141 139 142 154 157 164 162 162 162 166 164 161 163 167 171 175 177 181 185 195 203
172 179 181 176 170 164 161 157 144 135 133 133 137 137 146 154 152 150 156 155 156 153 152 154 155 164 169 172 169 168 171 173 172 173 174 177 182 187 187 190 197 203 211
182 189 187 187 183 176 168 168 160 155 154 142 146 144 140 153 157 155 159 156 158 167 168 172 173 175 179 180 180 180 178 179 182 185 188 191 192 193 196 205 209 215 220
182 192 196 192 188 180 170 168 174 163 154 150 150 153 150 156 161 165 167 168 176 185 183 184 190 190 192 193 192 195 196 196 194 196 200 202 204 208 213 217 223 225 230
190 198 193 194 183 184 181 178 181 178 171 161 171 166 165 163 165 175 183 190 193 194 191 191 194 198 200 201 202 202 205 208 208 210 211 213 216 219 223 225 229 233 232
183 188 186 192 196 195 198 198 192 192 192 182 178 186 186 177 184 189 196 202 203 204 203 203 202 202 201 201 203 207 210 213 216 217 219 222 223 225 230 234 238 241 244
183 186 184 192 195 197 199 204 209 212 210 204 192 195 202 197 203 202 206 210 212 213 213 212 213 212 211 211 211 213 214 216 218 219 222 224 226 229 231 234 236 239 241
82 148 153 169 187 197 196 205 215 221 222 222 215 200 200 210 220 222 223 222 220 219 218 217 220 222 223 222 221 220 221 223 224 224 226 227 228 230 232 236 238 240 242
67 84 90 90 109 123 164 205 223 236 244 241 233 233 228 228 233 239 243 243 241 238 232 229 228 228 227 226 227 228 230 231 230 230 228 230 232 234 236 238 239 241 244
46 62 76 68 68 69 69 73 67 62 54 29 321 282 267 260 258 261 262 260 258 255 253 249 246 246 244 240 238 237 236 237 234 232 232 234 237 239 239 240 243 245 247
44 55 71 73 59 56 56 55 56 56 55 53 51 52 46 31 1 341 319 299 283 274 270 266 264 264 263 262 259 255 252 251 252 253 244 243 244 244 244 244 248 250 252
Height
674 678 682 687 691 696 700 705 710 714 719 723 727 730 733 734 735 736 737 738 739 741 742 744 746 749 751 753 756 757 759 760 761 769 771 774 776 779 781 783 786 790 795
678 681 686 691 696 700 705 709 713 717 721 725 728 731 732 734 734 734 735 736 736 737 739 742 744 746 748 750 752 754 757 759 761 766 771 773 776 779 781 785 788 793 797
682 686 692 696 699 703 707 711 715 719 723 726 728 730 731 731 732 732 732 732 732 734 737 739 742 744 746 748 750 752 755 758 761 766 770 774 777 779 782 787 790 797 802
687 691 695 699 702 706 709 713 717 720 723 725 727 729 730 731 730 729 730 730 731 733 735 737 740 741 744 745 747 750 752 757 762 767 771 776 779 784 784 788 796 802 808
690 694 698 702 705 708 712 715 718 721 724 726 728 729 730 730 729 729 729 729 730 731 732 735 737 740 742 744 746 748 752 756 762 766 772 777 782 786 786 793 799 805 814
693 697 701 704 708 711 714 716 719 723 725 726 728 730 730 729 729 728 728 729 729 731 732 733 735 738 741 743 745 749 752 755 761 766 772 776 783 787 791 795 800 808 817
695 699 703 706 709 712 715 718 721 723 724 727 729 730 730 729 728 727 728 728 730 731 733 734 737 739 742 744 748 752 756 759 763 765 770 776 780 786 791 799 806 810 815
697 700 703 706 710 713 716 719 722 724 726 728 729 730 731 729 729 728 729 730 731 732 734 736 738 740 744 746 750 754 758 762 766 770 774 778 783 789 794 799 805 810 819
697 700 703 707 710 714 717 719 721 724 726 728 729 730 731 730 731 730 731 731 733 734 736 738 739 741 745 748 751 754 759 764 769 772 777 781 787 792 796 801 809 814 823
696 700 704 707 711 714 717 719 722 724 726 729 730 731 731 731 732 733 734 734 736 737 739 741 743 745 748 750 753 756 760 765 770 775 781 788 792 797 803 808 810 817 823
697 701 705 708 711 715 717 720 721 723 727 729 731 732 733 733 734 735 736 737 738 740 742 744 746 749 751 754 757 760 763 767 773 779 785 791 797 802 807 812 817 820 823
697 701 705 709 712 715 716 719 722 723 726 730 731 733 734 735 736 736 737 739 741 743 745 747 751 753 756 759 762 765 769 773 778 784 789 795 801 805 811 815 819 821 822
698 701 706 709 712 714 716 719 722 723 726 729 731 732 734 736 737 738 739 742 744 747 749 752 755 759 762 765 768 772 775 778 782 788 793 798 803 807 812 815 819 821 822
698 702 706 709 713 715 718 720 721 723 726 729 731 733 735 736 738 739 742 744 747 750 754 757 760 763 767 770 775 778 780 782 786 790 795 800 804 808 812 815 818 821 823
697 702 707 710 713 716 718 721 722 724 726 728 730 732 735 737 738 741 743 745 749 753 756 761 765 768 771 775 778 780 782 785 788 792 796 800 804 807 811 814 817 820 822
697 702 706 709 713 716 718 721 723 724 726 729 731 733 735 736 738 741 744 747 750 754 759 762 766 770 773 775 777 780 783 785 788 792 796 799 803 806 809 813 815 818 819
695 701 705 708 711 715 718 720 723 727 728 729 731 734 735 736 740 743 746 749 753 757 760 764 767 769 772 775 776 779 782 785 788 792 795 798 801 805 808 810 812 814 815
695 699 703 706 710 713 716 719 721 724 727 730 732 734 736 739 742 745 748 752 755 758 760 763 766 768 771 774 777 779 781 784 787 790 794 797 799 802 805 806 808 809 811
695 699 702 705 709 712 715 719 721 724 726 729 733 735 737 740 743 746 749 752 754 757 759 762 764 767 770 773 775 778 781 783 785 788 791 794 796 799 800 802 803 805 806
696 699 702 705 708 711 714 717 721 724 726 728 731 734 736 739 742 745 749 751 753 754 756 758 761 764 767 770 773 776 778 780 783 785 787 790 792 794 795 796 797 798 799
695 698 701 705 707 709 712 715 717 721 723 726 728 731 732 737 740 743 746 747 749 751 753 755 758 760 762 765 768 771 773 776 778 780 782 784 786 787 788 789 790 791 792
694 697 700 702 705 708 710 713 716 718 720 723 726 728 731 734 737 739 741 743 745 747 749 752 754 756 758 760 762 764 766 767 769 772 774 776 778 779 781 781 782 783 783
696 697 698 701 704 707 709 711 713 715 717 720 723 726 727 730 732 734 736 738 740 742 744 746 748 750 752 754 755 757 758 760 762 764 766 768 769 770 772 772 772 773 773
702 702 701 702 704 706 708 710 712 714 716 718 720 723 726 728 729 731 732 734 735 737 739 740 741 742 744 745 747 749 750 752 754 756 758 759 760 761 762 762 762 762 762
710 710 705 706 708 710 711 711 713 714 716 718 719 721 723 725 726 728 729 730 731 732 733 735 736 736 738 739 740 740 741 740 742 745 748 749 750 751 751 751 751 751 752
718 717 711 709 713 715 716 717 717 719 721 722 722 723 724 725 726 726 727 727 727 727 728 729 730 731 732 733 734 734 735 735 736 737 740 742 741 740 740 740 740 740 740